Regional Weather Roundup
Issued by NWS

Home | Current Version | Previous Version | Text Only | Print | Product List | Glossary Off
Versions: 1 2 3 4 5 6 7 8 9 10 11 12 13 14 15 16 17 18 19 20 21 22 23 24 25 26 27 28 29 30 31 32 33 34 35 36 37 38 39 40 41 42 43 44 45 46 47 48 49 50

000
ASUS43 KLOT 012200
RWRIL

ILLINOIS REGIONAL WEATHER ROUNDUP
NATIONAL WEATHER SERVICE CHICAGO/ROMEOVILLE IL
500 PM CDT SAT AUG 01 2015

NOTE: "FAIR" INDICATES FEW OR NO CLOUDS BELOW 12,000 FEET WITH NO
SIGNIFICANT WEATHER AND/OR OBSTRUCTIONS TO VISIBILITY.

* THESE STATIONS ARE NOT UNDER NWS QUALITY CONTROL. THEY ALSO MAY NOT
  REPORT WEATHER SUCH AS PRECIPITATION OR FOG.

ILZ001-002-007-009-015-016-024-012300-
NORTHWEST ILLINOIS

CITY           SKY/WX    TMP DP  RH WIND       PRES   REMARKS
MOLINE         MOSUNNY   84  64  50 SW8       29.94F HX  85
STERLING*      MOSUNNY   86  63  45 W16       29.91S HX  87
$$

ILZ003-004-008-010-011-017-018-012300-
NORTH CENTRAL ILLINOIS

CITY           SKY/WX    TMP DP  RH WIND       PRES   REMARKS
ROCKFORD       MOSUNNY   85  63  47 W15G24    29.93F HX  86
$$

ILZ005-006-012>014-019>023-012300-
NORTHEAST ILLINOIS

CITY           SKY/WX    TMP DP  RH WIND       PRES   REMARKS
CHICAGO-OHARE  PTSUNNY   85  59  41 W14G24    29.91F HX  84
CHICAGO-MIDWAY PTSUNNY   87  57  35 SW15G25   29.91F HX  86
AURORA         PTSUNNY   84  60  44 SW13      29.93F HX  84
WAUKEGAN       MOSUNNY   84  59  42 SW9G18    29.89F HX  84
DUPAGE AIRPORT MOSUNNY   83  60  45 SW17      29.92F HX  83
WHEELING       MOSUNNY   86  57  37 W14G20    29.92F HX  85
NORTHERLY ISL    N/A     85  53  33 W14         N/A  HX  83
$$

LMZ740>746-012300-
SOUTHERN LAKE MICHIGAN

STATION/POSITION SKY/WX   TEMP    WIND        PRES    VSBY  WAVE
                          AIR SEA DIR/SP/G                  HT/PER
                          (F)     (DEG/KT/KT) (MB)    (MI)  (FT/S)
HARRISON CRIB              77     130/  5/ 11   N/A
BURNHAM HARBOR             86     240/ 12/ 17   N/A
CALUMET HARBOR             85     230/  7/ 13   N/A
BURNS HARBOR               80     340/  2/  3 1013.5F
MICHIGAN CITY              78      10/  3/  3   N/A
MICHIGAN CITY 6N           79 76  110/  2/  4   N/A           1/ 4
ST. JOSEPH                 76 75  190/  2/  4   N/A           2/ 4
$$

ILZ025>027-034>036-040-047-049-050-058-095>099-012300-
WEST-CENTRAL ILLINOIS

CITY           SKY/WX    TMP DP  RH WIND       PRES   REMARKS
QUINCY         SUNNY     85  69  58 SW8       29.98F HX  89
MACOMB*        SUNNY     85  65  50 W6        30.00S HX  87
$$

ILZ028>032-037-038-041>044-048-051>054-059>061-012300-
CENTRAL ILLINOIS

CITY           SKY/WX    TMP DP  RH WIND       PRES   REMARKS
DECATUR        SUNNY     86  58  38 W8        29.99F HX  85
PEORIA         SUNNY     88  59  37 W12       29.96F HX  87
SPRINGFIELD    SUNNY     87  63  44 SW8       29.99S HX  88
TAYLORVILLE    NOT AVBL
$$

ILZ033-039-045-046-055>057-062-063-012300-
EAST-CENTRAL ILLINOIS

CITY           SKY/WX    TMP DP  RH WIND       PRES   REMARKS
CHAMPAIGN      MOSUNNY   83  62  49 SW7       29.99F HX  84
MATTOON        MOSUNNY   85  57  38 SW5       29.99F HX  84
$$

ILZ079-100>102-012300-
SOUTHWEST ILLINOIS

CITY           SKY/WX    TMP DP  RH WIND       PRES   REMARKS
CAHOKIA*       PTSUNNY   90  65  43 S3        29.99S HX  92
$$

ILZ064>066-069>071-074>076-080>082-084>086-088>090-092>094-012300-
SOUTH-CENTRAL ILLINOIS

CITY           SKY/WX    TMP DP  RH WIND       PRES   REMARKS
CARBONDALE     PTSUNNY   87  66  49 NW5       29.99F HX  89
MARION         MOSUNNY   90  68  48 NE7       30.00F HX  93
MT. VERNON     MOSUNNY   90  61  37 S5        30.01S HX  89
SALEM*         MOSUNNY   88  54  31 CALM      30.01R HX  85
$$

ILZ067-068-072-073-078-083-087-091-012300-
SOUTHEAST ILLINOIS

CITY           SKY/WX    TMP DP  RH WIND       PRES   REMARKS
LAWRENCEVILLE  MOSUNNY   86  57  37 NW8       30.00S HX  85
HARRISBURG*    MOSUNNY   86  59  40 CALM      30.01S HX  85
ROBINSON*      MOSUNNY   84  57  39 W3        30.01S HX  83
CARMI*         SUNNY     85  55  35 CALM      29.99S HX  84
$$

ABBREVIATIONS USED IN REMARKS
   TC - TEMPERATURE IN CELSIUS
  WCI - WIND CHILL INDEX
   HX - HEAT INDEX
  VSB - VISIBILITY
$$



USA.gov is the U.S. government's official web portal to all federal, state and local government web resources and services.